Location: Atherton
(17.2661°S, 145.4859°E)
Time: 00:01:13
(UTC+10:00)

Vanguard 1 - Pass Details

Date: 27 June 2025
Orbit: 649 x 3822 km, 34.2° (Epoch: 17 July)

Event Time Altitude Azimuth Distance (km) Brightness Sun altitude
Rises 16:42:12 0° 310° (NW) 7,909 16.5 14.5°
Reaches altitude 10° 16:47:37 10° 311° (NW) 6,916 16.6 13.3°
Maximum altitude 17:10:47 78° 34° (NE) 3,186 12.8 8.5°
Drops below altitude 10° 17:25:22 10° 118° (ESE) 4,670 12.9 5.4°
Sets 17:28:13 0° 119° (ESE) 5,342 13.1 4.8°
